STARLINK-11593, 63318

Orbit data source: Space-Track

STARLINK-11593, 63318 is a payload satellite owned by SpaceX/Seattle (US) in LEO that was launched on Tue, 18 Mar 2025 UTC via an FALCON 9 launch vehicle from the Air Force Eastern Test Range (AFETR). Payload-class satellites include a variety of spacecraft equipped with specific instruments for various scientific and technological missions. These include communications satellites like Starlink; space stations such as the ISS; scientific satellites like the Hubble; Earth observation satellites from companies like Planet Labs, Umbra, and HawkEye 360; GPS; miniature CubeSats for education and research; and military/defense satellites.

Loading next visibility...
Identifier
63318, 2025-057M
Orbit
LEO
Country
Flag of USUS
Related business
Manufacturer
SpaceX/Seattle
Mission
Operational Commercial Communications
Bus & Motor
STARLINK V2MD, Unknown motor
Mass
960 kg wet, ~910 kg dry
Launch date (UTC)
2025-03-18 (11 months ago)
Launch vehicle
FALCON 9
Launch site
Air Force Eastern Test Range (AFETR)
Object type
Payload
Rocket body
Debris
Shape & HBR
Box + 2 Pan, 18.1 m
Radar Cross Section
36.964 m², Large (>1 m²)

Expand to show TLE details & history
Last TLE update: 7 hours ago

TLE from 7 hours ago
0 STARLINK-11593
1 63318U 25057M   26034.56590674  .00251383  00000-0  18999-2 0  9997
2 63318  43.0014 109.9635 0001859 279.9100  80.1558 15.70890159 51849
Epoch: 2026-02-03T13:34Z
TLE epoch observation values (Epoch: 2026-02-03T13:34:54.342Z)
Latitude
Longitude
132.49207°
Altitude
355.909 km
Speed
7.698 km/s
True Right ascension
07h 19m 51s
True Declination
0° 00' 00"
Sunlit
Object was in full shadow at epoch
Visualization orbit readout
Latitude
Unknown
Longitude
Unknown
Altitude
Unknown
Speed
Unknown
Apparent Right ascension
Unknown
Apparent Declination
Unknown
Sunlit
N/A
Visualization observer readout
Local Sidereal Time
22:38:38
Azimuth
Unknown
Elevation
Unknown
Doppler factor
Unknown
Orbital elements
Apogee altitude
359.585 km
Perigee altitude
357.081 km
Semi-major axis
6,736.47 km
Eccentricity
0.00019
Inclination
43.0014°
RAAN
109.9635°
Arg. of periapsis
279.91°
True anomaly
80.17679°
Mean anomaly
80.1558°
Eccentric anomaly
80.16629°
Mean motion
3.9255 °/min
Orbital period
91.71 mins
BSTAR
0.0018999
Loading maneuver chart data...
Computing Atmospheric mass density...
Loading historical data...
Loading historical data...
Loading historical data...
Loading historical data...
Loading historical data...
Loading historical data...
Loading historical data...

Documentation

Showing up to 5 results
|